{"data":{"norad_id":48424,"intl_designator":"2021-039B","name":"YAOGAN-30 09B","alt_names":[],"object_type":"PAYLOAD","status":"ACTIVE","operator":null,"country":"PRC","launch_date":"2021-05-06","launch_site_code":"XICLF","launch_vehicle":null,"mission":null,"orbit_class":"UNKNOWN","rcs_meters":null,"size_class":null,"mass_kg":null,"dimensions":null,"purposes":[],"wikipedia_slug":null,"has_3d_model":false,"image_url":null,"decayed_at":null,"tle_current":{"epoch":"2026-09-20T22:26:56.046624Z","epoch_age_seconds":98836,"freshness":"FRESH","line1":"1 48424U 21039B   26263.93537091  .00001655  00000+0  12260-3 0  9993","line2":"2 48424  34.9949 167.3152 0004792 297.3541  62.6679 15.03025248293954","mean_motion":15.03025248,"eccentricity":0.0004792,"inclination_deg":34.9949,"raan_deg":167.3152,"arg_perigee_deg":297.3541,"mean_anomaly_deg":62.6679,"bstar":0.0001226,"rev_number":29395,"period_min":95.806773832717,"perigee_km":554.25044212239,"apogee_km":560.89762757819,"semimajor_km":6935.7110348503,"source":"CELESTRAK","updated_at":"2026-09-21T09:00:07.766931Z"}}}